Flag for French Polynesia Weather past 2 weeks in Gambier Islands, French Polynesia

Now
71 °F

Mild.


Feels Like: 74 °F
Forecast: 72 / 77 °F
Wind: 12 mph from South

Location: Rikitea

Current Time: May 26, 2015 at 5:14:20 AM

Latest Report: May 26, 2015 at 4:00 AM


Visibility: N/A

Pressure: 30.10 "Hg

Humidity: 70%

Dew point: 61 °F

Location of Gambier IslandsLocation

Historic Weather in Gambier Islands — Graph

°F

Gambier Islands temperature yesterday

Maximum temperature yesterday: 74 °F (at 9:00 AM)
Minimum temperature yesterday: 72 °F (at 7:00 PM)
Average temperature yesterday: 73 °F

Past Weeks' High & Low Weather Summary

 TemperatureHumidityPressure
High81 °F (May 11, 10:00 AM)100% (May 12, 6:00 AM)30.18 "Hg (May 12, 6:00 AM)
Low70 °F (May 17, 12:00 AM)68% (May 25, 11:00 PM)29.84 "Hg (May 11, 4:00 PM)
Average75 °F92%30.03 "Hg
* Reported May 11 3:00 AM — May 26 3:00 AM, Gambier Islands, Weather by CustomWeather, © 2015

Note: Actual official high and low records may vary slightly from our data, if they occured in-between our weather recording intervals... More about our weather records

Advertising

Gambier Islands weather history for previous 24 hours

 ConditionsComfort  
Time TempWeatherWind HumidityBarometerVisibility
3:00 AM
Tue, May 26
71 °FMild.14 mph75%30.11 "HgN/A
2:00 AM72 °FMild.12 mph72%30.11 "HgN/A
1:00 AM71 °FMild.14 mph72%30.13 "HgN/A
12:00 AM72 °FMild.12 mph72%30.14 "HgN/A
11:00 PM
Mon, May 25
72 °FMild.12 mph68%30.15 "HgN/A
10:00 PM72 °FMild.14 mph73%30.16 "HgN/A
9:00 PM72 °FMild.13 mph72%30.16 "HgN/A
8:00 PM72 °FMild.12 mph73%30.15 "HgN/A
7:00 PM72 °FMild.13 mph76%30.13 "HgN/A
5:00 PM72 °FPassing clouds.14 mph77%30.10 "Hg25 mi
4:00 PM72 °FPassing clouds.13 mph79%30.09 "Hg31 mi
3:00 PM73 °FPassing clouds.14 mph75%30.09 "Hg31 mi
2:00 PM74 °FOvercast.12 mph79%30.10 "Hg25 mi
1:00 PM74 °FOvercast.10 mph76%30.11 "Hg25 mi
11:00 AM74 °FOvercast.13 mph83%30.16 "Hg25 mi
10:00 AM74 °FOvercast.10 mph83%30.16 "Hg25 mi
9:00 AM74 °FPartly sunny.13 mph86%30.16 "Hg19 mi
8:00 AM73 °FOvercast.14 mph91%30.15 "Hg12 mi
7:00 AM72 °FOvercast.13 mph97%30.14 "Hg9 mi
6:00 AM73 °FPartly sunny.13 mph91%30.12 "Hg9 mi
5:00 AM73 °FMild.12 mph91%30.11 "HgN/A
Weather by CustomWeather, © 2015

See weather overviewHow to use our weather pages